#timestamp,LO_Frequency,Hit,StdDev 
1459771215.1,286047004.1,N
1459771216.0,286047004.1,N
1459771235.8,286047002.1,N
1459771255.6,286047002.2,N
1459771275.5,286047001.5,N
1459771295.3,286047001.6,N
1459771315.1,286046998.2,N
1459771335.9,286046998.3,N
1459771355.7,286046999.9,N
1459771375.5,286046999.4,N
1459771395.3,286046996.8,N
1459771415.2,286046997.0,N
1459771435.0,286046999.0,N
1459771435.9,286046999.0,N
1459771455.7,286047000.4,N
1459771475.6,286047000.6,N
1459771495.4,286046999.7,N
1459771515.2,286047000.3,N
1459771535.1,286047000.8,N
1459771536.0,286047000.8,N
1459771555.8,286047000.8,N
1459771575.6,286046998.3,N
1459771595.5,286047000.3,N
1459771615.3,286047003.5,N
1459771635.1,286047002.6,N
1459771655.9,286047001.9,N
1459771675.7,286047000.0,N
1459771695.5,286046998.4,N
1459771715.4,286047003.5,N
1459771735.2,286047001.7,N
1459771755.0,286047001.5,N
1459771755.9,286047001.5,N
1459771775.8,286047000.5,N
1459771795.6,286047002.2,N
1459771815.4,286047000.3,N
1459771835.2,286046998.4,N
1459771855.1,286047001.6,N
1459771856.0,286047001.6,N
1459771875.8,286047002.8,N
1459771895.6,286047000.2,N
1459771915.5,286047001.2,N
1459771935.3,286047000.2,N
1459771955.1,286047001.1,N
1459771975.9,286047001.1,N
1459771995.7,286047005.3,Y
1459772015.5,286047005.7,P
1459772035.4,286047003.1,N
1459772055.2,286047005.0,N
1459772075.0,286047006.9,Y
1459772076.0,286047006.9,P
1459772095.8,286047001.8,N
1459772115.6,286046998.4,N
1459772135.4,286046998.7,N
1459772155.3,286047000.3,N
1459772175.1,286046997.3,N
1459772195.8,286046998.8,N
1459772215.7,286046999.3,N
1459772235.5,286046997.8,N
1459772255.3,286046997.9,N
1459772275.2,286046995.3,N
1459772295.9,286046993.5,N
1459772315.7,286046996.1,N
1459772335.6,286046995.4,N
1459772355.4,286046996.1,N
1459772375.2,286046993.5,N
1459772395.0,286046992.1,N
1459772396.0,286046992.1,N
1459772415.8,286046993.6,N
1459772435.6,286046997.0,N
1459772455.4,286047001.0,N
1459772475.3,286046998.6,N
1459772495.1,286046996.6,N
1459772515.8,286046998.2,N
1459772535.7,286046998.5,N
1459772555.5,286046995.3,N
1459772575.3,286046997.1,N
1459772595.2,286046993.3,N
1459772615.9,286046993.8,N
1459772635.7,286046995.3,N
1459772655.6,286046997.1,N
1459772675.4,286046993.6,N
1459772695.2,286046990.2,Y
1459772715.1,286046994.3,P
1459772716.0,286046994.3,P
1459772735.8,286046993.9,P
1459772755.6,286046996.8,Y
1459772775.5,286047002.8,P
1459772795.3,286046999.9,N
1459772815.1,286047000.4,N
1459772835.9,286047004.3,N
1459772855.7,286047003.3,N
1459772875.5,286047004.7,N
1459772895.4,286047005.2,N
1459772915.2,286047003.9,N
1459772935.0,286047004.4,N
1459772935.9,286047004.4,N
1459772955.8,286047001.7,N
1459772975.6,286047002.8,N
1459772995.4,286047001.3,N
1459773015.2,286047002.1,N
1459773035.1,286047004.3,N
1459773036.0,286047004.3,N
1459773055.8,286047005.3,N
1459773075.6,286047007.3,N
1459773095.5,286047006.9,N
1459773115.3,286047007.2,N
1459773135.1,286047009.5,Y
1459773155.9,286047004.8,P
1459773175.7,286047007.6,P
1459773195.5,286047005.4,P
1459773215.4,286047004.5,N
1459773235.2,286047008.5,Y
1459773255.0,286046996.6,P
1459773255.9,286046996.6,N
1459773275.8,286046993.7,N
1459773295.6,286046993.5,N
1459773315.4,286046993.4,N
1459773335.3,286046997.0,N
1459773355.1,286046996.5,N
1459773356.0,286046996.5,N
1459773375.8,286046999.6,N
1459773395.7,286047000.6,N
1459773415.5,286047000.4,N
1459773435.3,286046996.9,N
1459773455.1,286046998.6,N
1459773475.9,286046996.6,N
1459773495.7,286046998.9,N
1459773515.5,286047004.3,N
1459773535.4,286046999.7,N
1459773555.2,286047003.8,N
1459773575.0,286047005.8,N
1459773575.9,286047005.8,N
1459773595.8,286047002.9,N
1459773615.6,286046998.3,N
1459773635.4,286047000.7,N
1459773655.3,286047000.7,N
1459773675.1,286046998.6,N
1459773676.0,286046998.6,N
1459773695.8,286046999.7,N
1459773715.7,286046997.0,N
1459773735.5,286046995.3,N
1459773755.3,286046995.2,N
1459773775.2,286046992.3,N
1459773795.9,286046990.1,N
1459773815.7,286046990.8,N
1459773835.5,286046988.7,N
1459773855.4,286046988.9,N
1459773875.2,286046989.7,N
1459773895.0,286046990.3,N
1459773895.9,286046990.3,N
1459773915.8,286046993.5,N
1459773935.6,286046998.7,N
1459773955.4,286046999.9,N
1459773975.3,286046999.9,N
1459773995.1,286046998.8,N
1459773996.0,286046998.8,N
1459774015.8,286046997.1,N
1459774035.7,286046994.9,N
1459774055.5,286046997.5,N
1459774075.3,286046995.3,N
1459774095.2,286046995.1,N
1459774115.9,286046998.0,N
1459774135.7,286046995.9,N
1459774155.6,286046996.1,N
1459774175.4,286046993.2,N
1459774195.2,286046987.9,Y
1459774215.1,286046987.6,P
1459774216.0,286046987.6,P
1459774235.8,286046985.4,P
1459774255.6,286046987.1,Y
1459774275.5,286047004.2,P
1459774295.3,286047004.1,N
1459774315.1,286047003.9,N
1459774335.9,286047003.6,N
1459774355.7,286047003.3,N
1459774375.5,286047003.1,N
1459774395.3,286047008.8,N
1459774415.2,286047008.7,N
1459774435.0,286047008.2,N
1459774435.9,286047008.2,N
1459774455.7,286047010.4,N
1459774475.6,286047011.7,N
1459774495.4,286047011.6,N
1459774515.2,286047016.6,N
1459774535.1,286047017.2,N
1459774536.0,286047017.2,N
1459774555.8,286047011.0,N
1459774575.6,286047010.1,N
1459774595.5,286047005.8,N
1459774615.3,286047002.7,N
1459774635.1,286047008.1,N
1459774655.9,286047012.3,N
1459774675.7,286047011.6,N
1459774695.5,286047016.7,N
1459774715.4,286047018.5,Y
1459774735.2,286047009.2,P
1459774755.0,286047006.5,P
1459774755.9,286047006.5,P
1459774775.8,286047006.6,Y
1459774795.6,286046996.9,P
